User: anonymous   Login
Location: Arezzo
(43.4170°N, 11.8830°E)
Time: 15:03:06
(UTC+02:00)
Language:

STARLINK-2751 - Orbit

View from above orbital plane
View from above orbital plane
View from above satellite
View from above satellite

Ground track
Ground track

The orbit data is extracted from the following two-line orbital elements,

1 48685U 21044AZ  21266.25002315 -.00048557  00000-0 -34245-3 0  9999
2 48685  53.0459 190.9703 0004212   5.4186  98.2902 15.73254529 19677
Epoch (UTC): 23 September 2021 06:00:02
Eccentricity: 0.0004212
inclination: 53.0459°
perigee height: 347 km
apogee height: 352 km
right ascension of ascending node: 190.9703°
argument of perigee: 5.4186°
revolutions per day: 15.73254529
mean anomaly at epoch: 98.2902°
orbit number at epoch: 1967

The dashed part of the orbit path shows where the satellite is in the earth's shadow,  

DLR